Year,Month,Day,Hour,Minute,Value (Times are PST for windgust in km/hr)
2014,02,13,00,00,9.60
2014,02,13,00,01,4.80
2014,02,13,00,02,4.80
2014,02,13,00,03,8.10
2014,02,13,00,04,8.10
2014,02,13,00,05,3.20
2014,02,13,00,06,3.20
2014,02,13,00,07,6.40
2014,02,13,00,08,6.40
2014,02,13,00,09,8.10
2014,02,13,00,10,11.30
2014,02,13,00,11,6.40
2014,02,13,00,12,8.10
2014,02,13,00,13,16.10
2014,02,13,00,14,8.10
2014,02,13,00,15,6.40
2014,02,13,00,16,8.10
2014,02,13,00,17,6.40
2014,02,13,00,18,6.40
2014,02,13,00,19,11.30
2014,02,13,00,20,8.10
2014,02,13,00,21,9.60
2014,02,13,00,22,8.10
2014,02,13,00,23,6.40
2014,02,13,00,24,4.80
2014,02,13,00,25,6.40
2014,02,13,00,26,6.40
2014,02,13,00,27,8.10
2014,02,13,00,28,6.40
2014,02,13,00,29,11.30
2014,02,13,00,30,9.60
2014,02,13,00,31,6.40
2014,02,13,00,32,8.10
2014,02,13,00,33,9.60
2014,02,13,00,34,8.10
2014,02,13,00,35,8.10
2014,02,13,00,36,8.10
2014,02,13,00,37,11.30
2014,02,13,00,38,11.30
2014,02,13,00,39,6.40
2014,02,13,00,40,8.10
2014,02,13,00,41,8.10
2014,02,13,00,42,3.20
2014,02,13,00,43,4.80
2014,02,13,00,44,1.60
2014,02,13,00,45,8.10
2014,02,13,00,46,9.60
2014,02,13,00,47,6.40
2014,02,13,00,48,9.60
2014,02,13,00,49,6.40
2014,02,13,00,50,4.80
2014,02,13,00,51,4.80
2014,02,13,00,52,4.80
2014,02,13,00,53,4.80
2014,02,13,00,54,3.20
2014,02,13,00,55,4.80
2014,02,13,00,56,9.60
2014,02,13,00,57,6.40
2014,02,13,00,58,6.40
2014,02,13,00,59,6.40
2014,02,13,01,00,4.80
2014,02,13,01,01,4.80
2014,02,13,01,02,11.30
2014,02,13,01,03,11.30
2014,02,13,01,04,9.60
2014,02,13,01,05,11.30
2014,02,13,01,06,8.10
2014,02,13,01,07,14.50
2014,02,13,01,08,12.90
2014,02,13,01,09,16.10
2014,02,13,01,10,9.60
2014,02,13,01,11,11.30
2014,02,13,01,12,9.60
2014,02,13,01,13,9.60
2014,02,13,01,14,11.30
2014,02,13,01,15,14.50
2014,02,13,01,16,11.30
2014,02,13,01,17,14.50
2014,02,13,01,18,20.90
2014,02,13,01,19,19.30
2014,02,13,01,20,17.70
2014,02,13,01,21,11.30
2014,02,13,01,22,12.90
2014,02,13,01,23,17.70
2014,02,13,01,24,17.70
2014,02,13,01,25,9.60
2014,02,13,01,26,11.30
2014,02,13,01,27,16.10
2014,02,13,01,28,14.50
2014,02,13,01,29,6.40
2014,02,13,01,30,14.50
2014,02,13,01,31,11.30
2014,02,13,01,32,16.10
2014,02,13,01,33,16.10
2014,02,13,01,34,16.10
2014,02,13,01,35,20.90
2014,02,13,01,36,17.70
2014,02,13,01,37,11.30
2014,02,13,01,38,12.90
2014,02,13,01,39,11.30
2014,02,13,01,40,8.10
2014,02,13,01,41,16.10
2014,02,13,01,42,11.30
2014,02,13,01,43,14.50
2014,02,13,01,44,6.40
2014,02,13,01,45,17.70
2014,02,13,01,46,14.50
2014,02,13,01,47,16.10
2014,02,13,01,48,9.60
2014,02,13,01,49,11.30
2014,02,13,01,50,12.90
2014,02,13,01,51,17.70
2014,02,13,01,52,16.10
2014,02,13,01,53,14.50
2014,02,13,01,54,22.50
2014,02,13,01,55,11.30
2014,02,13,01,56,14.50
2014,02,13,01,57,17.70
2014,02,13,01,58,11.30
2014,02,13,01,59,20.90
2014,02,13,02,00,22.50
2014,02,13,02,01,11.30
2014,02,13,02,02,19.30
2014,02,13,02,03,22.50
2014,02,13,02,04,22.50
2014,02,13,02,05,22.50
2014,02,13,02,06,16.10
2014,02,13,02,07,11.30
2014,02,13,02,08,20.90
2014,02,13,02,09,20.90
2014,02,13,02,10,14.50
2014,02,13,02,11,19.30
2014,02,13,02,12,12.90
2014,02,13,02,13,14.50
2014,02,13,02,14,17.70
2014,02,13,02,15,17.70
2014,02,13,02,16,8.10
2014,02,13,02,17,16.10
2014,02,13,02,18,19.30
2014,02,13,02,19,17.70
2014,02,13,02,20,22.50
2014,02,13,02,21,20.90
2014,02,13,02,22,8.10
2014,02,13,02,23,14.50
2014,02,13,02,24,19.30
2014,02,13,02,25,20.90
2014,02,13,02,26,9.60
2014,02,13,02,27,9.60
2014,02,13,02,28,22.50
2014,02,13,02,29,14.50
2014,02,13,02,30,11.30
2014,02,13,02,31,20.90
2014,02,13,02,32,16.10
2014,02,13,02,33,11.30
2014,02,13,02,34,9.60
2014,02,13,02,35,11.30
2014,02,13,02,36,22.50
2014,02,13,02,37,14.50
2014,02,13,02,38,19.30
2014,02,13,02,39,24.20
2014,02,13,02,40,17.70
2014,02,13,02,41,24.20
2014,02,13,02,42,25.70
2014,02,13,02,43,20.90
2014,02,13,02,44,20.90
2014,02,13,02,45,19.30
2014,02,13,02,46,22.50
2014,02,13,02,47,29.00
2014,02,13,02,48,17.70
2014,02,13,02,49,19.30
2014,02,13,02,50,19.30
2014,02,13,02,51,32.20
2014,02,13,02,52,38.60
2014,02,13,02,53,19.30
2014,02,13,02,54,24.20
2014,02,13,02,55,19.30
2014,02,13,02,56,22.50
2014,02,13,02,57,9.60
2014,02,13,02,58,16.10
2014,02,13,02,59,25.70
2014,02,13,03,00,25.70
2014,02,13,03,01,16.10
2014,02,13,03,02,17.70
2014,02,13,03,03,19.30
2014,02,13,03,04,22.50
2014,02,13,03,05,24.20
2014,02,13,03,06,25.70
2014,02,13,03,07,33.80
2014,02,13,03,08,19.30
2014,02,13,03,09,20.90
2014,02,13,03,10,29.00
2014,02,13,03,11,17.70
2014,02,13,03,12,17.70
2014,02,13,03,13,20.90
2014,02,13,03,14,16.10
2014,02,13,03,15,29.00
2014,02,13,03,16,16.10
2014,02,13,03,17,20.90
2014,02,13,03,18,29.00
2014,02,13,03,19,22.50
2014,02,13,03,20,19.30
2014,02,13,03,21,22.50
2014,02,13,03,22,24.20
2014,02,13,03,23,19.30
2014,02,13,03,24,27.40
2014,02,13,03,25,38.60
2014,02,13,03,26,22.50
2014,02,13,03,27,16.10
2014,02,13,03,28,22.50
2014,02,13,03,29,27.40
2014,02,13,03,30,19.30
2014,02,13,03,31,20.90
2014,02,13,03,32,24.20
2014,02,13,03,33,22.50
2014,02,13,03,34,25.70
2014,02,13,03,35,24.20
2014,02,13,03,36,25.70
2014,02,13,03,37,19.30
2014,02,13,03,38,22.50
2014,02,13,03,39,19.30
2014,02,13,03,40,22.50
2014,02,13,03,41,22.50
2014,02,13,03,42,29.00
2014,02,13,03,43,20.90
2014,02,13,03,44,32.20
2014,02,13,03,45,17.70
2014,02,13,03,46,29.00
2014,02,13,03,47,24.20
2014,02,13,03,48,25.70
2014,02,13,03,49,24.20
2014,02,13,03,50,24.20
2014,02,13,03,51,22.50
2014,02,13,03,52,20.90
2014,02,13,03,53,17.70
2014,02,13,03,54,24.20
2014,02,13,03,55,29.00
2014,02,13,03,56,38.60
2014,02,13,03,57,24.20
2014,02,13,03,58,25.70
2014,02,13,03,59,17.70
2014,02,13,04,00,14.50
2014,02,13,04,01,33.80
2014,02,13,04,02,29.00
2014,02,13,04,03,29.00
2014,02,13,04,04,40.20
2014,02,13,04,05,30.60
2014,02,13,04,06,29.00
2014,02,13,04,07,29.00
2014,02,13,04,08,19.30
2014,02,13,04,09,29.00
2014,02,13,04,10,25.70
2014,02,13,04,11,25.70
2014,02,13,04,12,27.40
2014,02,13,04,13,30.60
2014,02,13,04,14,27.40
2014,02,13,04,15,22.50
2014,02,13,04,16,16.10
2014,02,13,04,17,25.70
2014,02,13,04,18,22.50
2014,02,13,04,19,29.00
2014,02,13,04,20,27.40
2014,02,13,04,21,27.40
2014,02,13,04,22,27.40
2014,02,13,04,23,14.50
2014,02,13,04,24,20.90
2014,02,13,04,25,20.90
2014,02,13,04,26,16.10
2014,02,13,04,27,27.40
2014,02,13,04,28,16.10
2014,02,13,04,29,14.50
2014,02,13,04,30,17.70
2014,02,13,04,31,22.50
2014,02,13,04,32,19.30
2014,02,13,04,33,20.90
2014,02,13,04,34,12.90
2014,02,13,04,35,25.70
2014,02,13,04,36,29.00
2014,02,13,04,37,24.20
2014,02,13,04,38,33.80
2014,02,13,04,39,33.80
2014,02,13,04,40,30.60
2014,02,13,04,41,20.90
2014,02,13,04,42,22.50
2014,02,13,04,43,22.50
2014,02,13,04,44,27.40
2014,02,13,04,45,29.00
2014,02,13,04,46,32.20
2014,02,13,04,47,37.00
2014,02,13,04,48,25.70
2014,02,13,04,49,24.20
2014,02,13,04,50,29.00
2014,02,13,04,51,22.50
2014,02,13,04,52,24.20
2014,02,13,04,53,19.30
2014,02,13,04,54,20.90
2014,02,13,04,55,25.70
2014,02,13,04,56,14.50
2014,02,13,04,57,16.10
2014,02,13,04,58,19.30
2014,02,13,04,59,19.30
2014,02,13,05,00,30.60
2014,02,13,05,01,24.20
2014,02,13,05,02,29.00
2014,02,13,05,03,29.00
2014,02,13,05,04,24.20
2014,02,13,05,05,32.20
2014,02,13,05,06,27.40
2014,02,13,05,07,25.70
2014,02,13,05,08,29.00
2014,02,13,05,09,38.60
2014,02,13,05,10,27.40
2014,02,13,05,11,20.90
2014,02,13,05,12,19.30
2014,02,13,05,13,24.20
2014,02,13,05,14,32.20
2014,02,13,05,15,32.20
2014,02,13,05,16,30.60
2014,02,13,05,17,22.50
2014,02,13,05,18,22.50
2014,02,13,05,19,27.40
2014,02,13,05,20,27.40
2014,02,13,05,21,32.20
2014,02,13,05,22,37.00
2014,02,13,05,23,30.60
2014,02,13,05,24,25.70
2014,02,13,05,25,41.80
2014,02,13,05,26,32.20
2014,02,13,05,27,43.50
2014,02,13,05,28,27.40
2014,02,13,05,29,27.40
2014,02,13,05,30,19.30
2014,02,13,05,31,27.40
2014,02,13,05,32,53.10
2014,02,13,05,33,43.50
2014,02,13,05,34,35.40
2014,02,13,05,35,48.30
2014,02,13,05,36,32.20
2014,02,13,05,37,37.00
2014,02,13,05,38,38.60
2014,02,13,05,39,41.80
2014,02,13,05,40,35.40
2014,02,13,05,41,30.60
2014,02,13,05,42,43.50
2014,02,13,05,43,41.80
2014,02,13,05,44,29.00
2014,02,13,05,45,24.20
2014,02,13,05,46,29.00
2014,02,13,05,47,37.00
2014,02,13,05,48,35.40
2014,02,13,05,49,38.60
2014,02,13,05,50,32.20
2014,02,13,05,51,33.80
2014,02,13,05,52,48.30
2014,02,13,05,53,30.60
2014,02,13,05,54,46.70
2014,02,13,05,55,38.60
2014,02,13,05,56,38.60
2014,02,13,05,57,22.50
2014,02,13,05,58,29.00
2014,02,13,05,59,45.10
2014,02,13,06,00,45.10
2014,02,13,06,01,53.10
2014,02,13,06,02,46.70
2014,02,13,06,03,53.10
2014,02,13,06,04,37.00
2014,02,13,06,05,32.20
2014,02,13,06,06,33.80
2014,02,13,06,07,41.80
2014,02,13,06,08,45.10
2014,02,13,06,09,32.20
2014,02,13,06,10,30.60
2014,02,13,06,11,51.50
2014,02,13,06,12,33.80
2014,02,13,06,13,38.60
2014,02,13,06,14,35.40
2014,02,13,06,15,32.20
2014,02,13,06,16,64.40
2014,02,13,06,17,49.90
2014,02,13,06,18,48.30
2014,02,13,06,19,48.30
2014,02,13,06,20,38.60
2014,02,13,06,21,30.60
2014,02,13,06,22,48.30
2014,02,13,06,23,32.20
2014,02,13,06,24,30.60
2014,02,13,06,25,45.10
2014,02,13,06,26,40.20
2014,02,13,06,27,32.20
2014,02,13,06,28,32.20
2014,02,13,06,29,29.00
2014,02,13,06,30,30.60
2014,02,13,06,31,20.90
2014,02,13,06,32,24.20
2014,02,13,06,33,24.20
2014,02,13,06,34,25.70
2014,02,13,06,35,27.40
2014,02,13,06,36,35.40
2014,02,13,06,37,53.10
2014,02,13,06,38,41.80
2014,02,13,06,39,30.60
2014,02,13,06,40,24.20
2014,02,13,06,41,43.50
2014,02,13,06,42,24.20
2014,02,13,06,43,45.10
2014,02,13,06,44,32.20
2014,02,13,06,45,25.70
2014,02,13,06,46,33.80
2014,02,13,06,47,33.80
2014,02,13,06,48,29.00
2014,02,13,06,49,27.40
2014,02,13,06,50,29.00
2014,02,13,06,51,33.80
2014,02,13,06,52,32.20
2014,02,13,06,53,38.60
2014,02,13,06,54,27.40
2014,02,13,06,55,27.40
2014,02,13,06,56,19.30
2014,02,13,06,57,53.10
2014,02,13,06,58,53.10
2014,02,13,06,59,35.40
2014,02,13,07,00,32.20
2014,02,13,07,01,38.60
2014,02,13,07,02,51.50
2014,02,13,07,03,37.00
2014,02,13,07,04,27.40
2014,02,13,07,05,25.70
2014,02,13,07,06,45.10
2014,02,13,07,07,27.40
2014,02,13,07,08,29.00
2014,02,13,07,09,29.00
2014,02,13,07,10,32.20
2014,02,13,07,11,24.20
2014,02,13,07,12,20.90
2014,02,13,07,13,29.00
2014,02,13,07,14,19.30
2014,02,13,07,15,8.10
2014,02,13,07,16,14.50
2014,02,13,07,17,8.10
2014,02,13,07,18,11.30
2014,02,13,07,19,19.30
2014,02,13,07,20,6.40
2014,02,13,07,21,16.10
2014,02,13,07,22,16.10
2014,02,13,07,23,9.60
2014,02,13,07,24,29.00
2014,02,13,07,25,32.20
2014,02,13,07,26,8.10
2014,02,13,07,27,17.70
2014,02,13,07,28,16.10
2014,02,13,07,29,16.10
2014,02,13,07,30,22.50
2014,02,13,07,31,20.90
2014,02,13,07,32,16.10
2014,02,13,07,33,17.70
2014,02,13,07,34,17.70
2014,02,13,07,35,22.50
2014,02,13,07,36,32.20
2014,02,13,07,37,30.60
2014,02,13,07,38,22.50
2014,02,13,07,39,22.50
2014,02,13,07,40,30.60
2014,02,13,07,41,38.60
2014,02,13,07,42,20.90
2014,02,13,07,43,25.70
2014,02,13,07,44,38.60
2014,02,13,07,45,29.00
2014,02,13,07,46,53.10
2014,02,13,07,47,35.40
2014,02,13,07,48,25.70
2014,02,13,07,49,22.50
2014,02,13,07,50,27.40
2014,02,13,07,51,19.30
2014,02,13,07,52,16.10
2014,02,13,07,53,20.90
2014,02,13,07,54,32.20
2014,02,13,07,55,11.30
2014,02,13,07,56,22.50
2014,02,13,07,57,35.40
2014,02,13,07,58,24.20
2014,02,13,07,59,29.00
2014,02,13,08,00,19.30
2014,02,13,08,01,24.20
2014,02,13,08,02,20.90
2014,02,13,08,03,22.50
2014,02,13,08,04,24.20
2014,02,13,08,05,24.20
2014,02,13,08,06,27.40
2014,02,13,08,07,27.40
2014,02,13,08,08,24.20
2014,02,13,08,09,30.60
2014,02,13,08,10,22.50
2014,02,13,08,11,20.90
2014,02,13,08,12,30.60
2014,02,13,08,13,22.50
2014,02,13,08,14,27.40
2014,02,13,08,15,22.50
2014,02,13,08,16,25.70
2014,02,13,08,17,24.20
2014,02,13,08,18,27.40
2014,02,13,08,19,29.00
2014,02,13,08,20,33.80
2014,02,13,08,21,32.20
2014,02,13,08,22,20.90
2014,02,13,08,23,14.50
2014,02,13,08,24,22.50
2014,02,13,08,25,6.40
2014,02,13,08,26,16.10
2014,02,13,08,27,24.20
2014,02,13,08,28,17.70
2014,02,13,08,29,19.30
2014,02,13,08,30,9.60
2014,02,13,08,31,17.70
2014,02,13,08,32,17.70
2014,02,13,08,33,20.90
2014,02,13,08,34,20.90
2014,02,13,08,35,22.50
2014,02,13,08,36,20.90
2014,02,13,08,37,25.70
2014,02,13,08,38,20.90
2014,02,13,08,39,24.20
2014,02,13,08,40,24.20
2014,02,13,08,41,27.40
2014,02,13,08,42,22.50
2014,02,13,08,43,27.40
2014,02,13,08,44,27.40
2014,02,13,08,45,20.90
2014,02,13,08,46,17.70
2014,02,13,08,47,22.50
2014,02,13,08,48,29.00
2014,02,13,08,49,27.40
2014,02,13,08,50,29.00
2014,02,13,08,51,25.70
2014,02,13,08,52,27.40
2014,02,13,08,53,20.90
2014,02,13,08,54,25.70
2014,02,13,08,55,19.30
2014,02,13,08,56,33.80
2014,02,13,08,57,27.40
2014,02,13,08,58,29.00
2014,02,13,08,59,24.20
2014,02,13,09,00,24.20
2014,02,13,09,01,25.70
2014,02,13,09,02,30.60
2014,02,13,09,03,27.40
2014,02,13,09,04,33.80
2014,02,13,09,05,27.40
2014,02,13,09,06,33.80
2014,02,13,09,07,30.60
2014,02,13,09,08,30.60
2014,02,13,09,09,20.90
2014,02,13,09,10,43.50
2014,02,13,09,11,35.40
2014,02,13,09,12,19.30
2014,02,13,09,13,24.20
2014,02,13,09,14,17.70
2014,02,13,09,15,24.20
2014,02,13,09,16,30.60
2014,02,13,09,17,27.40
2014,02,13,09,18,25.70
2014,02,13,09,19,32.20
2014,02,13,09,20,33.80
2014,02,13,09,21,43.50
2014,02,13,09,22,37.00
2014,02,13,09,23,33.80
2014,02,13,09,24,24.20
2014,02,13,09,25,45.10
2014,02,13,09,26,30.60
2014,02,13,09,27,32.20
2014,02,13,09,28,27.40
2014,02,13,09,29,22.50
2014,02,13,09,30,24.20
2014,02,13,09,31,27.40
2014,02,13,09,32,33.80
2014,02,13,09,33,38.60
2014,02,13,09,34,46.70
2014,02,13,09,35,27.40
2014,02,13,09,36,33.80
2014,02,13,09,37,37.00
2014,02,13,09,38,33.80
2014,02,13,09,39,37.00
2014,02,13,09,40,22.50
2014,02,13,09,41,32.20
2014,02,13,09,42,24.20
2014,02,13,09,43,41.80
2014,02,13,09,44,29.00
2014,02,13,09,45,25.70
2014,02,13,09,46,27.40
2014,02,13,09,47,35.40
2014,02,13,09,48,22.50
2014,02,13,09,49,25.70
2014,02,13,09,50,20.90
2014,02,13,09,51,14.50
2014,02,13,09,52,20.90
2014,02,13,09,53,19.30
2014,02,13,09,54,40.20
2014,02,13,09,55,17.70
2014,02,13,09,56,16.10
2014,02,13,09,57,30.60
2014,02,13,09,58,25.70
2014,02,13,09,59,24.20
2014,02,13,10,00,16.10
2014,02,13,10,01,20.90
2014,02,13,10,02,20.90
2014,02,13,10,03,8.10
2014,02,13,10,04,6.40
2014,02,13,10,05,22.50
2014,02,13,10,06,14.50
2014,02,13,10,07,16.10
2014,02,13,10,08,30.60
2014,02,13,10,09,25.70
2014,02,13,10,10,25.70
2014,02,13,10,11,19.30
2014,02,13,10,12,19.30
2014,02,13,10,13,19.30
2014,02,13,10,14,6.40
2014,02,13,10,15,11.30
2014,02,13,10,16,11.30
2014,02,13,10,17,9.60
2014,02,13,10,18,19.30
2014,02,13,10,19,19.30
2014,02,13,10,20,16.10
2014,02,13,10,21,20.90
2014,02,13,10,22,17.70
2014,02,13,10,23,6.40
2014,02,13,10,24,14.50
2014,02,13,10,25,22.50
2014,02,13,10,26,16.10
2014,02,13,10,27,3.20
2014,02,13,10,28,8.10
2014,02,13,10,29,11.30
2014,02,13,10,30,11.30
2014,02,13,10,31,9.60
2014,02,13,10,32,19.30
2014,02,13,10,33,4.80
2014,02,13,10,34,14.50
2014,02,13,10,35,32.20
2014,02,13,10,36,22.50
2014,02,13,10,37,24.20
2014,02,13,10,38,9.60
2014,02,13,10,39,20.90
2014,02,13,10,40,11.30
2014,02,13,10,41,9.60
2014,02,13,10,42,16.10
2014,02,13,10,43,11.30
2014,02,13,10,44,20.90
2014,02,13,10,45,17.70
2014,02,13,10,46,11.30
2014,02,13,10,47,9.60
2014,02,13,10,48,19.30
2014,02,13,10,49,14.50
2014,02,13,10,50,6.40
2014,02,13,10,51,12.90
2014,02,13,10,52,14.50
2014,02,13,10,53,19.30
2014,02,13,10,54,19.30
2014,02,13,10,55,19.30
2014,02,13,10,56,24.20
2014,02,13,10,57,24.20
2014,02,13,10,58,20.90
2014,02,13,10,59,8.10
2014,02,13,11,00,19.30
2014,02,13,11,01,17.70
2014,02,13,11,02,17.70
2014,02,13,11,03,25.70
2014,02,13,11,04,22.50
2014,02,13,11,05,19.30
2014,02,13,11,06,19.30
2014,02,13,11,07,9.60
2014,02,13,11,08,11.30
2014,02,13,11,09,11.30
2014,02,13,11,10,22.50
2014,02,13,11,11,24.20
2014,02,13,11,12,25.70
2014,02,13,11,13,25.70
2014,02,13,11,14,16.10
2014,02,13,11,15,14.50
2014,02,13,11,16,8.10
2014,02,13,11,17,19.30
2014,02,13,11,18,14.50
2014,02,13,11,19,14.50
2014,02,13,11,20,16.10
2014,02,13,11,21,25.70
2014,02,13,11,22,11.30
2014,02,13,11,23,9.60
2014,02,13,11,24,14.50
2014,02,13,11,25,8.10
2014,02,13,11,26,4.80
2014,02,13,11,27,6.40
2014,02,13,11,28,11.30
2014,02,13,11,29,9.60
2014,02,13,11,30,19.30
2014,02,13,11,31,9.60
2014,02,13,11,32,9.60
2014,02,13,11,33,6.40
2014,02,13,11,34,8.10
2014,02,13,11,35,17.70
2014,02,13,11,36,8.10
2014,02,13,11,37,12.90
2014,02,13,11,38,17.70
2014,02,13,11,39,17.70
2014,02,13,11,40,19.30
2014,02,13,11,41,22.50
2014,02,13,11,42,27.40
2014,02,13,11,43,8.10
2014,02,13,11,44,16.10
2014,02,13,11,45,19.30
2014,02,13,11,46,20.90
2014,02,13,11,47,22.50
2014,02,13,11,48,29.00
2014,02,13,11,49,22.50
2014,02,13,11,50,17.70
2014,02,13,11,51,20.90
2014,02,13,11,52,27.40
2014,02,13,11,53,16.10
2014,02,13,11,54,14.50
2014,02,13,11,55,9.60
2014,02,13,11,56,14.50
2014,02,13,11,57,14.50
2014,02,13,11,58,17.70
2014,02,13,11,59,20.90
2014,02,13,12,00,16.10
2014,02,13,12,01,11.30
2014,02,13,12,02,9.60
2014,02,13,12,03,16.10
2014,02,13,12,04,20.90
2014,02,13,12,05,19.30
2014,02,13,12,06,20.90
2014,02,13,12,07,20.90
2014,02,13,12,08,30.60
2014,02,13,12,09,22.50
2014,02,13,12,10,19.30
2014,02,13,12,11,24.20
2014,02,13,12,12,20.90
2014,02,13,12,13,19.30
2014,02,13,12,14,12.90
2014,02,13,12,15,17.70
2014,02,13,12,16,11.30
2014,02,13,12,17,27.40
2014,02,13,12,18,25.70
2014,02,13,12,19,20.90
2014,02,13,12,20,16.10
2014,02,13,12,21,11.30
2014,02,13,12,22,11.30
2014,02,13,12,23,8.10
2014,02,13,12,24,12.90
2014,02,13,12,25,11.30
2014,02,13,12,26,9.60
2014,02,13,12,27,29.00
2014,02,13,12,28,19.30
2014,02,13,12,29,17.70
2014,02,13,12,30,11.30
2014,02,13,12,31,8.10
2014,02,13,12,32,14.50
2014,02,13,12,33,9.60
2014,02,13,12,34,19.30
2014,02,13,12,35,12.90
2014,02,13,12,36,12.90
2014,02,13,12,37,29.00
2014,02,13,12,38,24.20
2014,02,13,12,39,24.20
2014,02,13,12,40,24.20
2014,02,13,12,41,16.10
2014,02,13,12,42,25.70
2014,02,13,12,43,11.30
2014,02,13,12,44,17.70
2014,02,13,12,45,17.70
2014,02,13,12,46,12.90
2014,02,13,12,47,19.30
2014,02,13,12,48,27.40
2014,02,13,12,49,19.30
2014,02,13,12,50,16.10
2014,02,13,12,51,17.70
2014,02,13,12,52,17.70
2014,02,13,12,53,20.90
2014,02,13,12,54,24.20
2014,02,13,12,55,24.20
2014,02,13,12,56,16.10
2014,02,13,12,57,22.50
2014,02,13,12,58,24.20
2014,02,13,12,59,19.30
2014,02,13,13,00,14.50
2014,02,13,13,01,16.10
2014,02,13,13,02,14.50
2014,02,13,13,03,12.90
2014,02,13,13,04,14.50
2014,02,13,13,05,17.70
2014,02,13,13,06,17.70
2014,02,13,13,07,6.40
2014,02,13,13,08,9.60
2014,02,13,13,09,16.10
2014,02,13,13,10,19.30
2014,02,13,13,11,16.10
2014,02,13,13,12,14.50
2014,02,13,13,13,9.60
2014,02,13,13,14,8.10
2014,02,13,13,15,12.90
2014,02,13,13,16,16.10
2014,02,13,13,17,8.10
2014,02,13,13,18,9.60
2014,02,13,13,19,6.40
2014,02,13,13,20,14.50
2014,02,13,13,21,9.60
2014,02,13,13,22,11.30
2014,02,13,13,23,9.60
2014,02,13,13,24,24.20
2014,02,13,13,25,17.70
2014,02,13,13,26,19.30
2014,02,13,13,27,25.70
2014,02,13,13,28,25.70
2014,02,13,13,29,17.70
2014,02,13,13,30,17.70
2014,02,13,13,31,16.10
2014,02,13,13,32,22.50
2014,02,13,13,33,33.80
2014,02,13,13,34,22.50
2014,02,13,13,35,16.10
2014,02,13,13,36,12.90
2014,02,13,13,37,17.70
2014,02,13,13,38,9.60
2014,02,13,13,39,9.60
2014,02,13,13,40,19.30
2014,02,13,13,41,11.30
2014,02,13,13,42,24.20
2014,02,13,13,43,14.50
2014,02,13,13,44,17.70
2014,02,13,13,45,25.70
2014,02,13,13,46,27.40
2014,02,13,13,47,16.10
2014,02,13,13,48,19.30
2014,02,13,13,49,24.20
2014,02,13,13,50,17.70
2014,02,13,13,51,12.90
2014,02,13,13,52,11.30
2014,02,13,13,53,11.30
2014,02,13,13,54,16.10
2014,02,13,13,55,22.50
2014,02,13,13,56,20.90
2014,02,13,13,57,16.10
2014,02,13,13,58,11.30
2014,02,13,13,59,19.30
2014,02,13,14,00,20.90
2014,02,13,14,01,11.30
2014,02,13,14,02,11.30
2014,02,13,14,03,17.70
2014,02,13,14,04,16.10
2014,02,13,14,05,14.50
2014,02,13,14,06,8.10
2014,02,13,14,07,4.80
2014,02,13,14,08,3.20
2014,02,13,14,09,4.80
2014,02,13,14,10,1.60
2014,02,13,14,11,6.40
2014,02,13,14,12,11.30
2014,02,13,14,13,4.80
2014,02,13,14,14,3.20
2014,02,13,14,15,1.60
2014,02,13,14,16,1.60
2014,02,13,14,17,6.40
2014,02,13,14,18,3.20
2014,02,13,14,19,3.20
2014,02,13,14,20,6.40
2014,02,13,14,21,4.80
2014,02,13,14,22,4.80
2014,02,13,14,23,4.80
2014,02,13,14,24,1.60
2014,02,13,14,25,3.20
2014,02,13,14,26,8.10
2014,02,13,14,27,8.10
2014,02,13,14,28,4.80
2014,02,13,14,29,6.40
2014,02,13,14,30,6.40
2014,02,13,14,31,6.40
2014,02,13,14,32,9.60
2014,02,13,14,33,25.70
2014,02,13,14,34,24.20
2014,02,13,14,35,27.40
2014,02,13,14,36,27.40
2014,02,13,14,37,19.30
2014,02,13,14,38,16.10
2014,02,13,14,39,20.90
2014,02,13,14,40,8.10
2014,02,13,14,41,6.40
2014,02,13,14,42,8.10
2014,02,13,14,43,16.10
2014,02,13,14,44,19.30
2014,02,13,14,45,17.70
2014,02,13,14,46,9.60
2014,02,13,14,47,11.30
2014,02,13,14,48,12.90
2014,02,13,14,49,6.40
2014,02,13,14,50,19.30
2014,02,13,14,51,14.50
2014,02,13,14,52,20.90
2014,02,13,14,53,16.10
2014,02,13,14,54,19.30
2014,02,13,14,55,17.70
2014,02,13,14,56,14.50
2014,02,13,14,57,9.60
2014,02,13,14,58,14.50
2014,02,13,14,59,8.10
2014,02,13,15,00,8.10
2014,02,13,15,01,19.30
2014,02,13,15,02,11.30
2014,02,13,15,03,16.10
2014,02,13,15,04,17.70
2014,02,13,15,05,25.70
2014,02,13,15,06,16.10
2014,02,13,15,07,16.10
2014,02,13,15,08,11.30
2014,02,13,15,09,20.90
2014,02,13,15,10,19.30
2014,02,13,15,11,24.20
2014,02,13,15,12,19.30
2014,02,13,15,13,17.70
2014,02,13,15,14,17.70
2014,02,13,15,15,11.30
2014,02,13,15,16,14.50
2014,02,13,15,17,24.20
2014,02,13,15,18,22.50
2014,02,13,15,19,12.90
2014,02,13,15,20,20.90
2014,02,13,15,21,20.90
2014,02,13,15,22,17.70
2014,02,13,15,23,11.30
2014,02,13,15,24,17.70
2014,02,13,15,25,19.30
2014,02,13,15,26,24.20
2014,02,13,15,27,25.70
2014,02,13,15,28,19.30
2014,02,13,15,29,25.70
2014,02,13,15,30,22.50
2014,02,13,15,31,17.70
2014,02,13,15,32,16.10
2014,02,13,15,33,30.60
2014,02,13,15,34,19.30
2014,02,13,15,35,19.30
2014,02,13,15,36,20.90
2014,02,13,15,37,25.70
2014,02,13,15,38,17.70
2014,02,13,15,39,20.90
2014,02,13,15,40,27.40
2014,02,13,15,41,19.30
2014,02,13,15,42,17.70
2014,02,13,15,43,19.30
2014,02,13,15,44,24.20
2014,02,13,15,45,16.10
2014,02,13,15,46,17.70
2014,02,13,15,47,14.50
2014,02,13,15,48,22.50
2014,02,13,15,49,22.50
2014,02,13,15,50,16.10
2014,02,13,15,51,17.70
2014,02,13,15,52,22.50
2014,02,13,15,53,20.90
2014,02,13,15,54,19.30
2014,02,13,15,55,17.70
2014,02,13,15,56,16.10
2014,02,13,15,57,20.90
2014,02,13,15,58,27.40
2014,02,13,15,59,17.70
2014,02,13,16,00,16.10
2014,02,13,16,01,22.50
2014,02,13,16,02,20.90
2014,02,13,16,03,14.50
2014,02,13,16,04,11.30
2014,02,13,16,05,14.50
2014,02,13,16,06,14.50
2014,02,13,16,07,11.30
2014,02,13,16,08,16.10
2014,02,13,16,09,24.20
2014,02,13,16,10,14.50
2014,02,13,16,11,12.90
2014,02,13,16,12,14.50
2014,02,13,16,13,19.30
2014,02,13,16,14,11.30
2014,02,13,16,15,9.60
2014,02,13,16,16,9.60
2014,02,13,16,17,3.20
2014,02,13,16,18,4.80
2014,02,13,16,19,8.10
2014,02,13,16,20,19.30
2014,02,13,16,21,9.60
2014,02,13,16,22,14.50
2014,02,13,16,23,8.10
2014,02,13,16,24,6.40
2014,02,13,16,25,11.30
2014,02,13,16,26,9.60
2014,02,13,16,27,6.40
2014,02,13,16,28,11.30
2014,02,13,16,29,8.10
2014,02,13,16,30,8.10
2014,02,13,16,31,6.40
2014,02,13,16,32,6.40
2014,02,13,16,33,4.80
2014,02,13,16,34,4.80
2014,02,13,16,35,8.10
2014,02,13,16,36,11.30
2014,02,13,16,37,8.10
2014,02,13,16,38,6.40
2014,02,13,16,39,3.20
2014,02,13,16,40,8.10
2014,02,13,16,41,6.40
2014,02,13,16,42,4.80
2014,02,13,16,43,4.80
2014,02,13,16,44,12.90
2014,02,13,16,45,9.60
2014,02,13,16,46,11.30
2014,02,13,16,47,8.10
2014,02,13,16,48,4.80
2014,02,13,16,49,6.40
2014,02,13,16,50,1.60
2014,02,13,16,51,4.80
2014,02,13,16,52,8.10
2014,02,13,16,53,6.40
2014,02,13,16,54,3.20
2014,02,13,16,55,4.80
2014,02,13,16,56,4.80
2014,02,13,16,57,6.40
2014,02,13,16,58,6.40
2014,02,13,16,59,3.20
2014,02,13,17,00,3.20
2014,02,13,17,01,8.10
2014,02,13,17,02,4.80
2014,02,13,17,03,3.20
2014,02,13,17,04,3.20
2014,02,13,17,05,3.20
2014,02,13,17,06,3.20
2014,02,13,17,07,3.20
2014,02,13,17,08,6.40
2014,02,13,17,09,4.80
2014,02,13,17,10,4.80
2014,02,13,17,11,6.40
2014,02,13,17,12,6.40
2014,02,13,17,13,6.40
2014,02,13,17,14,6.40
2014,02,13,17,15,6.40
2014,02,13,17,16,4.80
2014,02,13,17,17,4.80
2014,02,13,17,18,6.40
2014,02,13,17,19,4.80
2014,02,13,17,20,6.40
2014,02,13,17,21,4.80
2014,02,13,17,22,6.40
2014,02,13,17,23,6.40
2014,02,13,17,24,6.40
2014,02,13,17,25,6.40
2014,02,13,17,26,6.40
2014,02,13,17,27,6.40
2014,02,13,17,28,4.80
2014,02,13,17,29,4.80